Zurück zum Katalog

STARLINK-30804

AktivKommunikationVLEO
NORAD 58155·PAYLOAD·🇺🇸 United States

Gestartet Oct 29, 2023 von Vandenberg Space Force Base

Loading…

Nächste Überflüge (nächste 24 Stunden)

TLE

AktuellSource: CelesTrak SupGP

Epoche: Sep 14, 2026, 22:36 UTC

1 58155C 23166F   26257.94215278  .00026356  00000+0  84782-3 0  2572
2 58155  53.1584  59.4029 0001231  84.4578 177.8391 15.31678172    12

Verfolge STARLINK-30804 in Echtzeit mit AllMySat

Download on the App Store